When you browse on this site, cookies collect data to enhance your experience and personalize the content and advertising you see.
Visit our Privacy Policy to learn more. By continuing to use the site, you agree to this use of cookies and data.
EN

Hourly Weather Lambaréné

Today, 5 July, Sunday

Time Temperature Precipitation Wind Pressure Humidity
00:00 +24°C° 0 mm 2 mps 755 mmHg 90%
01:00 +24°C° 0 mm 2 mps 754 mmHg 90%
02:00 +24°C° 0 mm 1 mps 754 mmHg 90%
03:00 +24°C° 0 mm 1 mps 754 mmHg 89%
04:00 +24°C° 0 mm 1 mps 753 mmHg 89%
05:00 +24°C° 0 mm 1 mps 754 mmHg 88%
06:00 +24°C° 0 mm 1 mps 754 mmHg 88%
07:00 +24°C° 0 mm 1 mps 754 mmHg 86%
08:00 +26°C° 0 mm 1 mps 755 mmHg 78%
09:00 +28°C° 0 mm 1 mps 755 mmHg 70%
10:00 +30°C° 0 mm 1 mps 755 mmHg 62%
11:00 +31°C° 0 mm 1 mps 754 mmHg 58%
12:00 +33°C° 0 mm 1 mps 754 mmHg 54%
13:00 +32°C° 0 mm 1 mps 753 mmHg 59%
14:00 +31°C° 0 mm 1 mps 753 mmHg 61%
15:00 +31°C° 0 mm 1 mps 752 mmHg 63%
16:00 +30°C° 0 mm 1 mps 752 mmHg 65%
17:00 +29°C° 0.1 mm 1 mps 752 mmHg 70%
18:00 +28°C° 0.1 mm 1 mps 752 mmHg 75%
19:00 +27°C° 0.1 mm 2 mps 753 mmHg 80%
20:00 +26°C° 0 mm 2 mps 753 mmHg 82%
21:00 +26°C° 0 mm 2 mps 754 mmHg 84%
22:00 +25°C° 0 mm 2 mps 755 mmHg 85%
23:00 +25°C° 0 mm 2 mps 755 mmHg 86%

Tomorrow, 6 July, Monday

Time Temperature Precipitation Wind Pressure Humidity
00:00 +25°C° 0 mm 2 mps 755 mmHg 87%
01:00 +24°C° 0 mm 1 mps 754 mmHg 88%
02:00 +24°C° 0 mm 1 mps 754 mmHg 90%
03:00 +23°C° 0 mm 1 mps 754 mmHg 91%
04:00 +23°C° 0 mm 1 mps 753 mmHg 93%
05:00 +23°C° 0 mm 1 mps 754 mmHg 92%
06:00 +21°C° 0 mm 0 mps 754 mmHg 92%
07:00 +21°C° 0 mm 0 mps 754 mmHg 91%
08:00 +23°C° 0 mm 0 mps 755 mmHg 85%
09:00 +24°C° 0 mm 0 mps 755 mmHg 78%
10:00 +26°C° 0 mm 0 mps 755 mmHg 72%
11:00 +27°C° 0.1 mm 1 mps 755 mmHg 74%
12:00 +27°C° 0.1 mm 1 mps 754 mmHg 75%
13:00 +27°C° 0.1 mm 1 mps 754 mmHg 77%
14:00 +27°C° 0 mm 1 mps 753 mmHg 78%
15:00 +27°C° 0 mm 1 mps 753 mmHg 79%
16:00 +26°C° 0 mm 1 mps 752 mmHg 79%
17:00 +26°C° 0 mm 1 mps 752 mmHg 81%
18:00 +23°C° 0 mm 0 mps 752 mmHg 83%
19:00 +23°C° 0 mm 0 mps 753 mmHg 85%
20:00 +23°C° 0 mm 0 mps 753 mmHg 85%
21:00 +25°C° 0 mm 1 mps 754 mmHg 86%
22:00 +24°C° 0 mm 1 mps 755 mmHg 87%
23:00 +24°C° 0 mm 1 mps 754 mmHg 88%

Day after tomorrow, 7 July, Tuesday

Time Temperature Precipitation Wind Pressure Humidity
00:00 +24°C° 0 mm 1 mps 754 mmHg 90%
01:00 +24°C° 0 mm 1 mps 754 mmHg 91%
02:00 +24°C° 0 mm 1 mps 754 mmHg 91%
03:00 +24°C° 0 mm 1 mps 753 mmHg 91%
04:00 +24°C° 0 mm 1 mps 753 mmHg 91%
05:00 +24°C° 0 mm 1 mps 753 mmHg 91%
06:00 +24°C° 0 mm 1 mps 753 mmHg 92%
07:00 +23°C° 0 mm 1 mps 754 mmHg 92%
08:00 +25°C° 0 mm 1 mps 754 mmHg 87%
09:00 +26°C° 0 mm 1 mps 754 mmHg 82%
10:00 +27°C° 0 mm 1 mps 755 mmHg 77%
11:00 +28°C° 0 mm 1 mps 754 mmHg 71%
12:00 +29°C° 0 mm 1 mps 754 mmHg 65%
13:00 +31°C° 0 mm 1 mps 753 mmHg 59%
14:00 +31°C° 0 mm 1 mps 752 mmHg 57%
15:00 +31°C° 0 mm 1 mps 752 mmHg 55%
16:00 +32°C° 0 mm 1 mps 751 mmHg 53%
17:00 +30°C° 0 mm 2 mps 752 mmHg 59%
18:00 +29°C° 0 mm 2 mps 752 mmHg 66%
19:00 +27°C° 0 mm 2 mps 753 mmHg 73%
20:00 +26°C° 0 mm 2 mps 753 mmHg 77%
21:00 +26°C° 0 mm 2 mps 753 mmHg 81%
22:00 +25°C° 0 mm 2 mps 754 mmHg 84%
23:00 +25°C° 0 mm 2 mps 754 mmHg 85%

8 July, Wednesday

Time Temperature Precipitation Wind Pressure Humidity
00:00 +24°C° 0 mm 1 mps 754 mmHg 87%
01:00 +24°C° 0 mm 1 mps 754 mmHg 88%
02:00 +23°C° 0 mm 1 mps 753 mmHg 90%
03:00 +23°C° 0 mm 1 mps 753 mmHg 92%
04:00 +22°C° 0 mm 1 mps 752 mmHg 94%
05:00 +20°C° 0 mm 0 mps 753 mmHg 93%
06:00 +21°C° 0 mm 0 mps 753 mmHg 93%
07:00 +21°C° 0 mm 0 mps 754 mmHg 92%
08:00 +23°C° 0 mm 0 mps 754 mmHg 81%
09:00 +26°C° 0 mm 0 mps 754 mmHg 71%
10:00 +28°C° 0 mm 0 mps 755 mmHg 60%
11:00 +30°C° 0 mm 0 mps 754 mmHg 56%
12:00 +33°C° 0 mm 1 mps 753 mmHg 51%
13:00 +34°C° 0 mm 1 mps 753 mmHg 46%
14:00 +34°C° 0 mm 1 mps 752 mmHg 46%
15:00 +34°C° 0 mm 1 mps 752 mmHg 46%
16:00 +34°C° 0 mm 1 mps 751 mmHg 45%
17:00 +32°C° 0 mm 1 mps 752 mmHg 52%
18:00 +30°C° 0 mm 1 mps 752 mmHg 58%
19:00 +28°C° 0 mm 1 mps 752 mmHg 65%
20:00 +27°C° 0 mm 2 mps 753 mmHg 70%
21:00 +26°C° 0 mm 2 mps 754 mmHg 75%
22:00 +25°C° 0 mm 2 mps 754 mmHg 80%
23:00 +24°C° 0 mm 2 mps 754 mmHg 82%

9 July, Thursday

Time Temperature Precipitation Wind Pressure Humidity
00:00 +24°C° 0 mm 1 mps 754 mmHg 84%
01:00 +24°C° 0 mm 1 mps 754 mmHg 86%
02:00 +23°C° 0 mm 1 mps 754 mmHg 87%
03:00 +23°C° 0 mm 1 mps 754 mmHg 88%
04:00 +23°C° 0 mm 1 mps 753 mmHg 89%
05:00 +23°C° 0 mm 1 mps 754 mmHg 88%
06:00 +23°C° 0 mm 1 mps 754 mmHg 88%
07:00 +21°C° 0 mm 0 mps 755 mmHg 87%
08:00 +23°C° 0 mm 0 mps 755 mmHg 77%
09:00 +28°C° 0 mm 1 mps 755 mmHg 67%
10:00 +30°C° 0 mm 1 mps 755 mmHg 57%
11:00 +31°C° 0 mm 1 mps 755 mmHg 53%
12:00 +32°C° 0 mm 1 mps 754 mmHg 49%
13:00 +34°C° 0 mm 1 mps 754 mmHg 46%
14:00 +33°C° 0 mm 1 mps 753 mmHg 47%
15:00 +33°C° 0 mm 1 mps 753 mmHg 49%
16:00 +32°C° 0 mm 1 mps 752 mmHg 50%
17:00 +31°C° 0 mm 2 mps 752 mmHg 55%
18:00 +29°C° 0 mm 2 mps 753 mmHg 61%
19:00 +28°C° 0 mm 2 mps 753 mmHg 66%
20:00 +27°C° 0 mm 2 mps 754 mmHg 70%
21:00 +26°C° 0 mm 2 mps 754 mmHg 74%
22:00 +25°C° 0 mm 2 mps 755 mmHg 79%
23:00 +25°C° 0 mm 2 mps 755 mmHg 80%

10 July, Friday

Time Temperature Precipitation Wind Pressure Humidity
00:00 +24°C° 0 mm 2 mps 755 mmHg 82%
01:00 +24°C° 0 mm 1 mps 755 mmHg 84%
02:00 +23°C° 0 mm 1 mps 755 mmHg 86%
03:00 +23°C° 0 mm 1 mps 754 mmHg 88%
04:00 +23°C° 0 mm 1 mps 754 mmHg 90%
05:00 +23°C° 0 mm 1 mps 754 mmHg 89%
06:00 +21°C° 0 mm 0 mps 755 mmHg 89%
07:00 +21°C° 0 mm 0 mps 755 mmHg 88%
08:00 +23°C° 0 mm 0 mps 755 mmHg 80%
09:00 +24°C° 0 mm 0 mps 755 mmHg 73%
10:00 +28°C° 0 mm 1 mps 755 mmHg 65%
11:00 +28°C° 0 mm 1 mps 755 mmHg 62%
12:00 +29°C° 0 mm 1 mps 755 mmHg 60%
13:00 +30°C° 0 mm 1 mps 754 mmHg 57%
14:00 +30°C° 0 mm 1 mps 754 mmHg 56%
15:00 +31°C° 0 mm 1 mps 753 mmHg 54%
16:00 +31°C° 0 mm 1 mps 753 mmHg 52%
17:00 +30°C° 0 mm 2 mps 753 mmHg 59%
18:00 +28°C° 0 mm 2 mps 753 mmHg 65%
19:00 +27°C° 0 mm 2 mps 754 mmHg 71%
20:00 +26°C° 0 mm 2 mps 754 mmHg 74%
21:00 +25°C° 0 mm 2 mps 755 mmHg 78%
22:00 +24°C° 0 mm 3 mps 755 mmHg 81%
23:00 +24°C° 0 mm 2 mps 755 mmHg 81%
Show more